Time,TemperatureF,DewpointF,PressureIn,WindDirection,WindDirectionDegrees,WindSpeedMPH,WindSpeedGustMPH,Humidity,HourlyPrecipIn,Conditions,Clouds,dailyrainin,SoftwareType,DateUTC
2013-05-30 00:01:00,74.1,66.4,29.75,SSW,202,6.3,-999.0,77,-99.99,,,0.00,Acu-Link.com,2013-05-30 05:01:00,
2013-05-30 00:16:00,73.9,66.2,29.76,South,180,4.2,-999.0,77,-99.99,,,0.00,Acu-Link.com,2013-05-30 05:16:00,
2013-05-30 00:31:00,73.8,66.1,29.75,South,180,5.3,-999.0,77,-99.99,,,0.00,Acu-Link.com,2013-05-30 05:31:00,
2013-05-30 00:46:00,73.6,65.9,29.75,SSE,157,4.2,-999.0,77,-99.99,,,0.00,Acu-Link.com,2013-05-30 05:46:00,
2013-05-30 01:01:00,73.8,66.1,29.75,SSE,157,6.3,-999.0,77,-99.99,,,0.00,Acu-Link.com,2013-05-30 06:01:00,
2013-05-30 01:16:00,73.0,65.7,29.75,SSE,157,4.2,-999.0,78,-99.99,,,0.00,Acu-Link.com,2013-05-30 06:16:00,
2013-05-30 01:31:00,73.2,65.9,29.74,SE,135,3.7,-999.0,78,-99.99,,,0.00,Acu-Link.com,2013-05-30 06:31:00,
2013-05-30 01:46:00,73.0,66.1,29.74,SE,135,3.7,-999.0,79,-99.99,,,0.00,Acu-Link.com,2013-05-30 06:46:00,
2013-05-30 02:02:00,73.2,66.3,29.73,ESE,112,5.8,-999.0,79,-99.99,,,0.00,Acu-Link.com,2013-05-30 07:02:00,
2013-05-30 02:17:00,73.4,66.5,29.72,ESE,112,6.3,-999.0,79,-99.99,,,0.00,Acu-Link.com,2013-05-30 07:17:00,
2013-05-30 02:32:00,73.4,66.8,29.72,South,180,4.7,-999.0,80,-99.99,,,0.00,Acu-Link.com,2013-05-30 07:32:00,
2013-05-30 02:47:00,73.4,66.8,29.72,ESE,112,5.8,-999.0,80,-99.99,,,0.00,Acu-Link.com,2013-05-30 07:47:00,
2013-05-30 03:02:00,73.4,67.2,29.72,SSE,157,3.7,-999.0,81,-99.99,,,0.00,Acu-Link.com,2013-05-30 08:02:00,
2013-05-30 03:17:00,73.4,67.2,29.72,SSE,157,5.8,-999.0,81,-99.99,,,0.00,Acu-Link.com,2013-05-30 08:17:00,
2013-05-30 03:32:00,72.9,67.1,29.72,ESE,112,6.3,-999.0,82,-99.99,,,0.00,Acu-Link.com,2013-05-30 08:32:00,
2013-05-30 03:47:00,73.0,67.2,29.72,South,180,9.4,-999.0,82,-99.99,,,0.00,Acu-Link.com,2013-05-30 08:47:00,
2013-05-30 04:03:00,73.2,67.4,29.72,SE,135,7.3,-999.0,82,-99.99,,,0.00,Acu-Link.com,2013-05-30 09:03:00,
2013-05-30 04:18:00,73.4,67.6,29.72,WSW,247,4.2,-999.0,82,-99.99,,,0.00,Acu-Link.com,2013-05-30 09:18:00,
2013-05-30 04:33:00,73.2,67.4,29.73,SSE,157,3.7,-999.0,82,-99.99,,,0.00,Acu-Link.com,2013-05-30 09:33:00,
2013-05-30 04:48:00,72.9,67.4,29.72,SE,135,5.3,-999.0,83,-99.99,,,0.00,Acu-Link.com,2013-05-30 09:48:00,
2013-05-30 05:03:00,72.9,67.4,29.72,South,180,10.9,-999.0,83,-99.99,,,0.00,Acu-Link.com,2013-05-30 10:03:00,
2013-05-30 05:18:00,72.9,67.8,29.72,SSE,157,8.3,-999.0,84,-99.99,,,0.00,Acu-Link.com,2013-05-30 10:18:00,
2013-05-30 05:33:00,72.7,67.6,29.72,SE,135,5.8,-999.0,84,-99.99,,,0.00,Acu-Link.com,2013-05-30 10:33:00,
2013-05-30 05:49:00,72.7,67.9,29.72,ESE,112,8.9,-999.0,85,-99.99,,,0.00,Acu-Link.com,2013-05-30 10:49:00,
2013-05-30 06:04:00,72.5,67.7,29.73,ESE,112,5.8,-999.0,85,-99.99,,,0.00,Acu-Link.com,2013-05-30 11:04:00,
2013-05-30 06:19:00,72.7,67.9,29.73,South,180,8.9,-999.0,85,-99.99,,,0.00,Acu-Link.com,2013-05-30 11:19:00,
2013-05-30 06:34:00,73.0,68.2,29.73,South,180,9.9,-999.0,85,-99.99,,,0.00,Acu-Link.com,2013-05-30 11:34:00,
2013-05-30 06:49:00,73.2,68.4,29.73,ESE,112,5.3,-999.0,85,-99.99,,,0.00,Acu-Link.com,2013-05-30 11:49:00,
2013-05-30 07:04:00,73.4,68.6,29.73,SE,135,4.7,-999.0,85,-99.99,,,0.00,Acu-Link.com,2013-05-30 12:04:00,
2013-05-30 07:20:00,73.8,69.0,29.74,SSE,157,8.3,-999.0,85,-99.99,,,0.00,Acu-Link.com,2013-05-30 12:20:00,
2013-05-30 07:35:00,73.9,68.8,29.74,SSE,157,6.8,-999.0,84,-99.99,,,0.00,Acu-Link.com,2013-05-30 12:35:00,
2013-05-30 07:50:00,74.3,69.1,29.74,South,180,6.3,-999.0,84,-99.99,,,0.00,Acu-Link.com,2013-05-30 12:50:00,
2013-05-30 08:05:00,74.7,69.5,29.74,SSE,157,8.3,-999.0,84,-99.99,,,0.00,Acu-Link.com,2013-05-30 13:05:00,
2013-05-30 08:20:00,75.2,70.0,29.74,SE,135,6.3,-999.0,84,-99.99,,,0.00,Acu-Link.com,2013-05-30 13:20:00,
2013-05-30 08:35:00,76.1,70.5,29.74,SE,135,6.8,-999.0,83,-99.99,,,0.00,Acu-Link.com,2013-05-30 13:35:00,
2013-05-30 08:50:00,76.6,70.3,29.73,ESE,112,5.8,-999.0,81,-99.99,,,0.00,Acu-Link.com,2013-05-30 13:50:00,
2013-05-30 09:05:00,77.4,70.7,29.73,ESE,112,9.4,-999.0,80,-99.99,,,0.00,Acu-Link.com,2013-05-30 14:05:00,
2013-05-30 09:20:00,78.6,71.5,29.72,South,180,10.9,-999.0,79,-99.99,,,0.00,Acu-Link.com,2013-05-30 14:20:00,
2013-05-30 09:36:00,79.0,71.2,29.72,SSW,202,9.9,-999.0,77,-99.99,,,0.00,Acu-Link.com,2013-05-30 14:36:00,
2013-05-30 09:51:00,79.5,70.9,29.72,South,180,15.0,-999.0,75,-99.99,,,0.00,Acu-Link.com,2013-05-30 14:51:00,
2013-05-30 10:06:00,80.8,72.1,29.73,SSW,202,7.3,-999.0,75,-99.99,,,0.00,Acu-Link.com,2013-05-30 15:06:00,
2013-05-30 10:21:00,80.4,71.3,29.72,SE,135,18.6,-999.0,74,-99.99,,,0.00,Acu-Link.com,2013-05-30 15:21:00,
2013-05-30 10:36:00,80.6,71.5,29.72,SE,135,10.4,-999.0,74,-99.99,,,0.00,Acu-Link.com,2013-05-30 15:36:00,
2013-05-30 10:51:00,79.5,70.9,29.72,SSE,157,13.5,-999.0,75,-99.99,,,0.00,Acu-Link.com,2013-05-30 15:51:00,
2013-05-30 11:07:00,80.6,71.1,29.72,West,270,3.7,-999.0,73,-99.99,,,0.00,Acu-Link.com,2013-05-30 16:07:00,
2013-05-30 11:22:00,81.7,70.9,29.72,South,180,8.3,-999.0,70,-99.99,,,0.00,Acu-Link.com,2013-05-30 16:22:00,
2013-05-30 11:37:00,82.8,71.6,29.71,West,270,16.1,-999.0,69,-99.99,,,0.00,Acu-Link.com,2013-05-30 16:37:00,
2013-05-30 11:52:00,83.5,71.8,29.72,SSW,202,11.9,-999.0,68,-99.99,,,0.00,Acu-Link.com,2013-05-30 16:52:00,
2013-05-30 12:07:00,82.4,71.6,29.72,ESE,112,8.3,-999.0,70,-99.99,,,0.00,Acu-Link.com,2013-05-30 17:07:00,
2013-05-30 12:22:00,82.8,72.0,29.71,ESE,112,9.9,-999.0,70,-99.99,,,0.00,Acu-Link.com,2013-05-30 17:22:00,
2013-05-30 12:37:00,82.9,71.7,29.72,SSE,157,14.5,-999.0,69,-99.99,,,0.00,Acu-Link.com,2013-05-30 17:37:00,
2013-05-30 12:52:00,82.9,71.2,29.71,SSE,157,7.3,-999.0,68,-99.99,,,0.00,Acu-Link.com,2013-05-30 17:52:00,
2013-05-30 13:07:00,85.1,72.4,29.70,South,180,8.9,-999.0,66,-99.99,,,0.00,Acu-Link.com,2013-05-30 18:07:00,
2013-05-30 13:23:00,84.0,71.8,29.69,SE,135,14.0,-999.0,67,-99.99,,,0.00,Acu-Link.com,2013-05-30 18:23:00,
2013-05-30 13:38:00,83.7,71.6,29.69,SSE,157,11.4,-999.0,67,-99.99,,,0.00,Acu-Link.com,2013-05-30 18:38:00,
2013-05-30 13:53:00,84.6,71.5,29.67,SE,135,15.5,-999.0,65,-99.99,,,0.00,Acu-Link.com,2013-05-30 18:53:00,
2013-05-30 14:08:00,82.2,70.6,29.67,South,180,17.6,-999.0,68,-99.99,,,0.00,Acu-Link.com,2013-05-30 19:08:00,
2013-05-30 14:23:00,84.2,72.0,29.68,South,180,15.0,-999.0,67,-99.99,,,0.00,Acu-Link.com,2013-05-30 19:23:00,
2013-05-30 14:38:00,81.9,70.7,29.67,SSE,157,7.8,-999.0,69,-99.99,,,0.00,Acu-Link.com,2013-05-30 19:38:00,
2013-05-30 14:53:00,83.7,71.6,29.66,SSE,157,11.4,-999.0,67,-99.99,,,0.00,Acu-Link.com,2013-05-30 19:53:00,
2013-05-30 15:08:00,83.8,71.6,29.66,SSW,202,9.9,-999.0,67,-99.99,,,0.00,Acu-Link.com,2013-05-30 20:08:00,
2013-05-30 15:24:00,84.7,72.9,29.66,SSW,202,2.7,-999.0,68,-99.99,,,0.00,Acu-Link.com,2013-05-30 20:24:00,
2013-05-30 15:39:00,82.8,71.6,29.66,SSW,202,15.5,-999.0,69,-99.99,,,0.00,Acu-Link.com,2013-05-30 20:39:00,
2013-05-30 15:54:00,82.2,71.4,29.65,SSE,157,17.1,-999.0,70,-99.99,,,0.00,Acu-Link.com,2013-05-30 20:54:00,
2013-05-30 16:09:00,81.9,70.7,29.65,SE,135,14.5,-999.0,69,-99.99,,,0.00,Acu-Link.com,2013-05-30 21:09:00,
2013-05-30 16:24:00,82.4,71.2,29.63,SSE,157,5.3,-999.0,69,-99.99,,,0.00,Acu-Link.com,2013-05-30 21:24:00,
2013-05-30 16:39:00,82.6,71.4,29.63,SSE,157,12.5,-999.0,69,-99.99,,,0.00,Acu-Link.com,2013-05-30 21:39:00,
2013-05-30 16:54:00,81.9,69.8,29.63,SW,225,7.8,-999.0,67,-99.99,,,0.00,Acu-Link.com,2013-05-30 21:54:00,
2013-05-30 17:09:00,81.7,69.2,29.63,South,180,9.4,-999.0,66,-99.99,,,0.00,Acu-Link.com,2013-05-30 22:09:00,
2013-05-30 17:24:00,81.9,69.8,29.62,South,180,10.4,-999.0,67,-99.99,,,0.00,Acu-Link.com,2013-05-30 22:24:00,
2013-05-30 17:40:00,81.0,69.0,29.63,ESE,112,9.4,-999.0,67,-99.99,,,0.00,Acu-Link.com,2013-05-30 22:40:00,
2013-05-30 17:55:00,81.3,69.3,29.63,South,180,10.9,-999.0,67,-99.99,,,0.00,Acu-Link.com,2013-05-30 22:55:00,
2013-05-30 18:10:00,80.4,68.8,29.63,SE,135,9.9,-999.0,68,-99.99,,,0.00,Acu-Link.com,2013-05-30 23:10:00,
2013-05-30 18:25:00,79.9,69.2,29.64,South,180,7.3,-999.0,70,-99.99,,,0.00,Acu-Link.com,2013-05-30 23:25:00,
2013-05-30 18:40:00,79.5,69.7,29.64,SSE,157,8.9,-999.0,72,-99.99,,,0.00,Acu-Link.com,2013-05-30 23:40:00,
2013-05-30 18:55:00,79.5,70.1,29.64,SW,225,7.3,-999.0,73,-99.99,,,0.00,Acu-Link.com,2013-05-30 23:55:00,
2013-05-30 19:11:00,79.5,70.5,29.65,SE,135,7.8,-999.0,74,-99.99,,,0.00,Acu-Link.com,2013-05-31 00:11:00,
2013-05-30 19:26:00,79.0,70.4,29.65,SW,225,7.8,-999.0,75,-99.99,,,0.00,Acu-Link.com,2013-05-31 00:26:00,
2013-05-30 19:41:00,78.8,70.2,29.64,South,180,9.9,-999.0,75,-99.99,,,0.00,Acu-Link.com,2013-05-31 00:41:00,
2013-05-30 19:56:00,78.4,69.8,29.65,South,180,11.9,-999.0,75,-99.99,,,0.00,Acu-Link.com,2013-05-31 00:56:00,
2013-05-30 20:11:00,73.2,67.0,29.69,South,180,13.5,-999.0,81,-99.99,,,0.00,Acu-Link.com,2013-05-31 01:11:00,
2013-05-30 20:26:00,70.5,66.1,29.70,SW,225,6.3,-999.0,86,-99.99,,,0.01,Acu-Link.com,2013-05-31 01:26:00,
2013-05-30 20:41:00,68.9,66.2,29.72,East,90,6.8,-999.0,91,-99.99,,,0.12,Acu-Link.com,2013-05-31 01:41:00,
2013-05-30 20:56:00,68.2,66.1,29.73,SW,225,3.7,-999.0,93,-99.99,,,0.13,Acu-Link.com,2013-05-31 01:56:00,
2013-05-30 21:11:00,67.5,65.4,29.71,West,270,2.7,-999.0,93,-99.99,,,0.13,Acu-Link.com,2013-05-31 02:11:00,
2013-05-30 21:27:00,66.7,64.3,29.71,South,180,0.0,-999.0,92,-99.99,,,0.13,Acu-Link.com,2013-05-31 02:27:00,
2013-05-30 21:42:00,65.8,63.7,29.72,SE,135,0.0,-999.0,93,-99.99,,,0.13,Acu-Link.com,2013-05-31 02:42:00,
2013-05-30 21:57:00,65.5,63.4,29.71,East,90,0.0,-999.0,93,-99.99,,,0.13,Acu-Link.com,2013-05-31 02:57:00,
2013-05-30 22:12:00,65.1,63.3,29.71,East,90,0.0,-999.0,94,-99.99,,,0.13,Acu-Link.com,2013-05-31 03:12:00,
2013-05-30 22:27:00,65.3,63.8,29.70,West,270,0.0,-999.0,95,-99.99,,,0.18,Acu-Link.com,2013-05-31 03:27:00,
2013-05-30 22:42:00,65.3,63.8,29.71,West,270,0.0,-999.0,95,-99.99,,,0.22,Acu-Link.com,2013-05-31 03:42:00,
2013-05-30 22:57:00,65.3,64.1,29.71,SSE,157,3.2,-999.0,96,-99.99,,,0.22,Acu-Link.com,2013-05-31 03:57:00,
2013-05-30 23:12:00,65.7,64.8,29.71,ESE,112,1.1,-999.0,97,-99.99,,,0.22,Acu-Link.com,2013-05-31 04:12:00,
2013-05-30 23:27:00,66.2,65.3,29.69,SSE,157,4.2,-999.0,97,-99.99,,,0.25,Acu-Link.com,2013-05-31 04:27:00,
2013-05-30 23:43:00,66.7,65.8,29.67,ESE,112,4.7,-999.0,97,-99.99,,,0.25,Acu-Link.com,2013-05-31 04:43:00,
2013-05-30 23:58:00,66.7,65.8,29.71,SW,225,11.4,-999.0,97,-99.99,,,0.67,Acu-Link.com,2013-05-31 04:58:00,